Погода в Полануре

Россия / Республика Марий Эл     56°55′19″N   49°10′16″E
темп.,
°C
ветер,
м/с
пор.,
м/с
влажн.,
%
обл.,
%
осадки,
мм/ч
давл.,
гПа
погр.,
м
11 мая, вт
вт1100:00+11с4798100 0.1 1024177
03:00+10с4798100 0.1 1025236
06:00+11ссв5694100 0.0 1026316
09:00+15св458242 0.0 1027489
12:00+20св33645 0.0 1027873
15:00+21св33583 0.0 10271087
18:00+19ссв35711 0.0 1028191
21:00+14св36882 0.1 1029108
12 мая, ср
ср1200:00+13всв36912 0.0 1029101
03:00+12всв35932 0.0 102983
06:00+15всв35842 0.0 1029179
09:00+20всв45665 0.0 1029586
12:00+23вюв44525 0.0 10281207
15:00+24вюв354249 0.0 10272067
18:00+22вюв335913 0.0 102764
21:00+17вюв3366100 0.0 102728
13 мая, чт
чт1300:00+15вюв3470100 0.0 102746
03:00+14юв3366100 0.0 102730
06:00+16вюв356558 0.0 1027142
09:00+21юв465029 0.0 1027587
12:00+24ююв56385 0.0 10261880
15:00+24ю563998 0.0 10251742
18:00+22юв225689 0.0 102420
21:00+17юв466392 0.0 102490
14 мая, пт
пт1400:00+15юв487698 0.4 1024137
03:00+15ююв477367 0.5 1023113
06:00+16ююв497334 0.1 1023240
09:00+22ю584637 0.2 1022640
12:00+25ю793987 0.1 10211222
15:00+26ююз694255 0.1 10211756
18:00+22ююз4863100 0.0 1020239
21:00+18ю377164 0.1 102095
15 мая, сб
сб1500:00+16ююз410712 0.0 1020153
03:00+15ююз49745 0.0 1020140
06:00+18ююз4106878 0.0 1020266
09:00+23ююз584792 0.0 1019542
12:00+27ю693517 0.0 10181145
15:00+27ююз693859 0.0 10181571
18:00+23ю510515 0.0 1017290
21:00+18ю514625 0.0 1016236